This is the latest recevied weather packets stored in our database for station/object EA3KZ-1. If no packets are shown the sender has not sent any weather packets the latest 1 day(s).
| Time | Temp. | Humidity | Pressure | Rain* | Wind** | Luminosity | Snow |
|---|---|---|---|---|---|---|---|
| 1836274727 | 20.56° C | 91% | 1018.8 hPa | 0 mm | 0 m/s | - | - |
| 1836274579 | 20.56° C | 91% | 1018.6 hPa | 0 mm | 0.45 m/s, 229° | - | - |
| 1778035556 | 11.67° C | 75% | 1006.2 hPa | 0 mm | 1.34 m/s, 258° | - | - |
| 1778034954 | 11.67° C | 74% | 1006.3 hPa | 0 mm | 1.34 m/s, 260° | - | - |
| 1778034351 | 11.67° C | 77% | 1006.1 hPa | 0 mm | 0.89 m/s, 267° | - | - |
| 1778033743 | 11.11° C | 77% | 1006.1 hPa | 0 mm | 0 m/s | - | - |
| 1778033141 | 11.67° C | 76% | 1006 hPa | 0 mm | 0.45 m/s, 339° | - | - |
| 1778032532 | 11.11° C | 77% | 1005.8 hPa | 0 mm | 0.89 m/s, 315° | - | - |
| 1778031930 | 11.67° C | 76% | 1005.9 hPa | 0 mm | 0.89 m/s, 309° | - | - |
| 1778030719 | 11.11° C | 80% | 1006 hPa | 0 mm | 0 m/s | - | - |
| 1778030128 | 11.67° C | 79% | 1006 hPa | 0 mm | 0.45 m/s, 113° | - | - |
| 1778029568 | 11.11° C | 79% | 1006 hPa | 0 mm | 0 m/s | - | - |
| 1778028966 | 11.11° C | 82% | 1006.1 hPa | 0 mm | 0.45 m/s, 127° | - | - |
| 1778027755 | 10.56° C | 85% | 1006.3 hPa | 0 mm | 0.45 m/s, 211° | - | - |
| 1778027152 | 11.11° C | 84% | 1006.2 hPa | 0 mm | 0.45 m/s, 180° | - | - |
| 1778026544 | 11.67° C | 85% | 1006.4 hPa | 0 mm | 0.45 m/s, 105° | - | - |
| 1778025339 | 11.67° C | 82% | 1006.3 hPa | 0 mm | 0.45 m/s, 283° | - | - |
| 1778024731 | 11.67° C | 84% | 1006.4 hPa | 0 mm | 0.45 m/s, 262° | - | - |
| 1778024128 | 11.11° C | 87% | 1006.4 hPa | 0 mm | 0.45 m/s, 302° | - | - |
| 1778023520 | 11.11° C | 88% | 1006.5 hPa | 0 mm | 0 m/s | - | - |
| 1778022918 | 11.11° C | 88% | 1006.3 hPa | 0 mm | 0.45 m/s, 230° | - | - |
| 1778022315 | 11.67° C | 86% | 1006.3 hPa | 0 mm | 0 m/s | - | - |
| 1778021767 | 11.67° C | 85% | 1006.1 hPa | 0 mm | 0.45 m/s, 297° | - | - |
| 1778021164 | 11.67° C | 84% | 1006.5 hPa | 0 mm | 0.45 m/s, 230° | - | - |
| 1778020557 | 12.22° C | 81% | 1006.7 hPa | 0 mm | 0.45 m/s, 208° | - | - |
* Rain latest hour (hover to see other rain measurements)
** Current wind speed in m/s (hover to see current wind gust speed)